Meath Environmental Platform

Observations

Time Sensor AQI SAQ Temp °C Hum % Pres Pa CO μg/m³ H₂S μg/m³ NO μg/m³ NO₂ μg/m³ O₃ μg/m³ SO₂ μg/m³ CO₂e PPM VOC PPM PM1 μg/m³ PM2.5 μg/m³ PM4 μg/m³ PM10 μg/m³ TPS µm
Tuesday 11 August 2026
10:14 Trim Patrick St 1 29 43 69,181 0 0 0.93 8.98 39.16 9.78 2 6.85 7.53
10:13 Trim Patrick St 1 28.9 45 69,181 0 0 0.93 8.85 28.82 9.32 3.71 9.08 9.99
10:12 Trim Market St 1 34.6 31 66,437 0 0 0.43 12.7 70.97 0 0.71 3.81 4.19
10:12 Trim Patrick St 1 28.8 43 69,177 0 0 0.94 11.55 54.5 9.83 3.71 9.21 10.13
10:11 Trim Market St 1 34.6 31 66,416 0 0 0.44 10.88 57.34 0 0.71 3.82 4.2
10:11 Trim Patrick St 1 28.8 43 69,173 0 0 0.94 19.89 46.05 9.76 2.86 8.41 9.25
10:10 Trim Patrick St 1 28.6 42 69,169 0 0 1 8.98 9.84 8.39 2.86 8.47 9.32
10:09 Trim Market St 1 34.5 31 66,420 0 0 0.42 11.95 53.63 0 0 3.27 3.59
10:09 Trim Patrick St 1 28.6 43 69,167 0 0 0.99 9.3 46.51 10.09 3.71 9.21 10.13
10:08 Trim Patrick St 1 28.5 43 69,189 0 0 1.01 10.13 58.22 8.76 3.71 8.41 9.25
10:07 Trim Market St 1 34.4 32 66,400 0.03 0 0.41 11.93 55.34 0 0 3.78 4.16
10:07 Trim Patrick St 1 28.4 44 69,189 0 0 1.01 8.94 36.05 9.15 3.71 9.09 10
10:06 Trim Market St 1 34.4 31 66,398 0 0 0.41 9.79 43.78 0 0 3.25 3.58
10:06 Trim Patrick St 1 28.4 42 69,187 0 0 1.02 9.01 63.76 9.83 2.86 8.46 9.3
10:05 Trim Market St 1 34.4 31 66,394 0 0 0.43 10.44 57 0 0 3.25 3.58
10:05 Trim Patrick St 1 28.3 42 69,187 0 0 1.03 9.12 53.8 9.97 2.86 8.46 9.3
10:04 Trim Market St 1 34.3 32 66,392 0 0 0.43 11.78 57.15 0 0.71 3.79 4.17
10:04 Trim Patrick St 1 28.2 44 69,161 0 0 1.02 9.26 44.76 8.52 2.86 8.32 9.16
10:03 Trim Market St 1 34.3 32 66,388 0 0 0.44 11.86 49.33 0 0.71 3.24 3.57
10:03 Trim Patrick St 1 28.2 44 69,157 0 0 1.03 8.46 48.45 8.98 3.71 9.09 9.99